CAPE
0 0 0 0 0 0 0 0 0 0 0 0 8 70 60 132 44 5 46 30 204 126 32 178 246 393 836 549 300 139 208 888 907 1477 1121 940 1085 1164 691 885 1198 921 1112 1112
0 0 0 0 0 0 0 0 0 0 4 0 85 18 62 54 9 29 177 518 476 124 7 284 211 434 838 606 575 724 920 1105 1066 1162 1041 1103 1033 1245 730 859 1242 759 587 1522
0 0 0 0 0 0 0 0 0 2 0 0 85 53 82 33 0 0 32 169 50 0 83 252 30 446 408 819 1093 1051 918 1028 1051 1212 1472 1255 1039 960 869 850 1280 1066 508 1226
0 0 0 0 0 0 0 0 0 0 0 0 24 42 11 19 0 3 0 203 340 211 56 49 93 308 795 748 849 1325 802 1254 1485 1647 1241 1145 1031 780 741 687 747 1122 934 1312
0 0 0 0 0 0 0 0 0 0 0 0 134 3 281 0 0 0 0 0 246 73 208 571 232 384 383 237 383 436 399 1794 2118 1551 1096 1161 947 699 800 718 737 1019 979 711
0 0 0 0 0 0 0 0 0 0 0 0 5 0 0 0 152 0 0 65 91 199 512 604 241 119 44 144 475 178 234 1714 2362 1788 1472 1211 785 1003 1034 865 653 544 985 1115
0 0 0 0 0 0 0 0 0 0 0 0 0 4 0 109 104 262 202 78 354 1033 907 449 112 43 0 5 432 150 175 116 2518 1923 2195 1700 1199 1030 791 747 484 17 707 533
0 0 0 0 0 0 0 0 0 0 18 20 23 12 33 196 129 5 108 144 542 818 326 423 329 314 138 10 15 0 182 114 609 2472 2113 1938 1612 1226 719 730 381 61 671 604
1 0 1 0 0 0 0 0 0 0 0 27 22 8 47 17 14 18 0 15 123 881 612 491 663 270 51 2 33 24 58 206 1340 2867 2545 2103 1669 1286 820 828 608 756 1110 986
0 0 0 6 0 0 0 0 0 0 0 58 38 136 72 41 38 44 62 31 57 1175 527 555 507 94 32 17 4 63 171 271 2619 2878 2840 2598 2156 1920 1246 889 845 819 1133 1133
0 0 0 3 0 0 0 0 0 0 0 25 47 77 27 63 1 23 4 117 609 1164 963 535 445 130 372 291 91 262 426 2368 3030 2889 2804 2295 2141 1925 1746 1651 1255 1054 1164 784
0 18 2 0 0 0 0 0 0 0 45 31 35 175 5 2 0 5 19 4 1084 1366 1201 1092 857 358 549 391 1104 425 1288 2994 2965 2636 2769 2360 2365 2287 2087 1736 1689 1318 1280 1127
0 3 0 0 0 0 1 1 3 1 4 38 10 56 71 0 0 15 0 6 395 1511 1410 1299 1646 1439 1461 2003 1322 469 442 2778 2663 2550 2735 2326 2299 2121 1985 1972 1833 1498 1420 1034
0 0 0 0 0 0 0 0 0 0 0 0 11 159 0 0 0 0 0 97 599 2192 2086 1934 1344 2318 2840 2522 2151 2105 2048 734 1450 2626 2789 2472 2064 1862 1790 2045 1939 1625 1706 1407
0 0 0 0 0 0 0 0 0 0 0 0 0 60 0 0 0 0 7 197 1253 1630 1545 1843 2565 1726 2994 2983 2855 2901 2470 2488 2640 2212 2505 2773 2572 2425 2298 2262 2101 1783 1686 1557
0 0 0 0 0 0 0 0 0 0 0 162 62 102 23 83 109 358 502 1342 1342 1485 1563 1607 1813 1749 2003 3083 2865 2730 2466 2418 2550 2579 3148 3255 2879 2536 2467 2413 2062 1780 1791 1673
0 0 0 0 0 0 0 0 0 130 72 761 823 299 236 104 824 547 770 794 1142 1316 1366 1262 1209 1298 1298 1642 2490 2983 3266 2601 2476 2557 2807 3100 3367 2811 2934 2474 2126 2077 1700 1528
0 0 0 0 0 0 0 51 0 15 569 649 758 456 619 557 752 490 590 613 558 667 559 575 784 1181 1293 1456 1710 1808 2589 3569 3624 3430 3329 3427 3152 2859 3373 3009 2450 2383 2125 1517
0 0 0 0 0 0 0 9 0 105 954 974 945 796 740 422 326 483 270 337 354 250 174 80 153 854 1122 1130 1489 1576 1783 2441 3285 3390 3779 3857 3777 3742 3520 3498 3380 2362 2800 2184
0 0 0 0 0 0 174 22 50 63 788 833 962 787 852 810 511 734 225 298 93 100 198 0 0 200 182 568 1330 1559 1889 2537 2666 2711 2891 3227 3559 3487 3303 3230 3271 3276 2816 2579
16 13 1 5 3 11 76 154 221 96 832 755 471 441 500 614 642 862 583 484 364 20 9 1 0 4 0 61 480 922 1831 2002 2153 2162 2281 2332 3007 3293 3210 2674 3024 3194 3112 2979
0 3 5 46 278 383 60 463 676 509 333 244 178 60 34 0 59 453 470 328 63 0 0 0 0 0 104 6 198 216 544 1449 1525 1855 1738 1992 2269 2284 2729 2894 2431 2587 2583 2704
8 63 50 47 183 90 72 7 1 0 0 0 4 0 0 0 0 0 0 0 0 6 18 0 0 6 66 88 137 82 439 199 407 1108 1704 1544 1669 2239 2430 2152 1966 1567 2100 1891
0 0 26 33 74 0 0 0 0 0 0 0 0 0 0 0 0 0 0 0 0 4 6 1 0 1 8 56 240 216 151 241 139 329 604 1325 1492 1308 1371 515 5 140 508 605
0 0 0 0 0 0 0 0 0 0 0 0 0 0 0 0 0 1 0 0 0 0 0 0 0 58 177 145 91 106 94 234 78 36 136 254 844 926 773 0 1 1 0 1
0 0 0 0 0 0 0 0 0 0 0 2 0 0 0 0 1 4 1 6 25 28 29 141 170 180 76 47 27 18 61 23 25 80 16 17 96 540 1155 1 0 1 0 0
CIN
-0 -0 -0 -0 -0 -0 -0 -0 -0 -0 -0 -0 -86 -230 -231 -268 -333 -196 -286 -102 -246 -422 -318 -219 -95 -66 -133 -161 -165 -276 -228 -139 -92 -59 -78 -67 -57 -66 -105 -94 -39 -52 -44 -36
-0 -0 -0 -0 -0 -0 -0 -0 -0 -0 -23 -0 -263 -310 -324 -304 -264 -273 -312 -263 -334 -501 -353 -122 -201 -62 -121 -186 -163 -178 -144 -142 -112 -82 -103 -90 -92 -75 -99 -73 -44 -51 -44 -33
-0 -0 -0 -0 -0 -0 -0 -0 -0 -9 -0 -0 -245 -260 -431 -366 -0 -0 -354 -337 -209 -0 -362 -183 -245 -102 -89 -121 -133 -152 -159 -137 -123 -80 -88 -81 -84 -77 -68 -76 -45 -39 -42 -36
-0 -0 -0 -0 -0 -0 -0 -0 -0 -0 -0 -0 -26 -93 -283 -414 -0 -355 -0 -306 -524 -474 -484 -425 -282 -84 -53 -133 -115 -129 -166 -137 -135 -87 -89 -91 -100 -116 -108 -96 -73 -42 -43 -25
-0 -0 -0 -0 -0 -0 -0 -0 -0 -0 -0 -0 -59 -59 -171 -0 -0 -0 -0 -0 -267 -502 -443 -432 -440 -355 -343 -435 -260 -289 -341 -96 -80 -122 -133 -110 -101 -120 -94 -90 -76 -57 -58 -42
-0 -0 -0 -0 -0 -0 -0 -0 -0 -0 -0 -0 -40 -0 -0 -0 -309 -64 -0 -197 -139 -267 -349 -276 -396 -333 -236 -251 -126 -250 -293 -92 -78 -111 -118 -123 -130 -86 -62 -81 -117 -145 -73 -42
-0 -0 -0 -0 -0 -0 -0 -0 -0 -0 -1 -0 -0 -63 -0 -351 -205 -341 -423 -400 -104 -132 -322 -512 -570 -502 -0 -190 -89 -227 -326 -364 -39 -118 -84 -83 -103 -89 -96 -98 -158 -320 -129 -104
-0 -0 -0 -0 -0 -0 -0 -0 -0 -0 -20 -54 -81 -173 -233 -463 -370 -51 -358 -414 -170 -155 -434 -504 -477 -477 -486 -510 -339 -0 -378 -279 -146 -59 -79 -69 -69 -81 -109 -124 -209 -362 -145 -76
-24 -2 -5 -0 -0 -0 -0 -0 -0 -0 -0 -59 -256 -342 -308 -522 -307 -140 -0 -309 -362 -229 -464 -487 -430 -618 -671 -636 -552 -480 -402 -305 -46 -35 -61 -63 -87 -91 -102 -73 -127 -96 -54 -70
-0 -0 -0 -10 -0 -0 -0 -0 -0 -10 -0 -21 -163 -120 -183 -325 -463 -303 -306 -51 -357 -81 -393 -460 -507 -625 -559 -409 -354 -502 -307 -353 -26 -51 -58 -56 -57 -57 -86 -87 -91 -78 -52 -48
-0 -0 -0 -13 -0 -0 -0 -0 -0 -0 -0 -15 -151 -309 -100 -542 -296 -601 -360 -201 -192 -97 -108 -474 -487 -542 -528 -482 -623 -404 -275 -73 -40 -50 -77 -82 -65 -51 -57 -59 -68 -64 -52 -78
-0 -79 -10 -0 -0 -0 -0 -0 -0 -0 -58 -50 -51 -155 -438 -390 -0 -581 -522 -20 -53 -98 -136 -96 -216 -512 -448 -471 -275 -334 -174 -56 -49 -62 -80 -97 -65 -51 -45 -38 -39 -51 -46 -73
-0 -25 -0 -0 -0 -0 -30 -39 -26 -17 -55 -46 -21 -130 -392 -0 -0 -385 -0 -237 -179 -64 -109 -110 -91 -89 -211 -148 -194 -355 -437 -91 -57 -61 -66 -93 -78 -58 -51 -43 -37 -59 -38 -61
-0 -0 -0 -0 -0 -0 -0 -0 -0 -0 -0 -0 -27 -129 -0 -0 -0 -0 -0 -273 -137 -51 -57 -97 -135 -90 -116 -146 -187 -195 -171 -242 -140 -44 -36 -72 -115 -113 -81 -56 -47 -48 -50 -57
-0 -0 -0 -0 -0 -0 -0 -0 -0 -0 -0 -0 -0 -74 -0 -0 -0 -0 -16 -280 -60 -55 -91 -82 -59 -142 -98 -115 -127 -121 -125 -99 -63 -70 -49 -37 -80 -80 -68 -49 -56 -64 -66 -63
-0 -0 -0 -0 -0 -0 -0 -0 -0 -0 -0 -46 -220 -211 -374 -361 -293 -201 -149 -64 -86 -85 -123 -112 -94 -130 -126 -56 -76 -74 -97 -96 -84 -72 -42 -23 -33 -42 -35 -37 -69 -86 -69 -62
-0 -0 -0 -0 -0 -0 -0 -0 -0 -26 -78 -46 -59 -192 -294 -323 -177 -188 -150 -116 -105 -98 -99 -117 -138 -163 -182 -152 -91 -46 -60 -103 -138 -109 -71 -36 -23 -35 -38 -49 -62 -68 -84 -92
-0 -0 -0 -0 -0 -0 -0 -89 -0 -93 -62 -64 -91 -169 -205 -179 -189 -84 -129 -130 -132 -147 -158 -171 -160 -111 -132 -130 -137 -141 -71 -38 -41 -40 -52 -39 -38 -44 -32 -32 -47 -54 -76 -105
-0 -0 -0 -0 -0 -0 -0 -146 -0 -44 -76 -83 -60 -60 -22 -86 -112 -117 -248 -225 -168 -178 -215 -222 -205 -131 -159 -168 -152 -149 -126 -66 -17 -13 -15 -15 -19 -14 -22 -22 -31 -86 -38 -59
-0 -0 -0 -0 -0 -0 -36 -128 -179 -137 -61 -85 -108 -133 -137 -60 -78 -71 -169 -182 -202 -212 -187 -8 -0 -205 -256 -232 -133 -103 -69 -52 -46 -36 -36 -25 -16 -18 -34 -34 -41 -33 -38 -31
-16 -11 -4 -110 -74 -11 -132 -80 -74 -73 -23 -44 -136 -157 -158 -136 -89 -67 -117 -112 -99 -200 -226 -67 -0 -85 -0 -226 -221 -158 -29 -33 -31 -35 -50 -68 -35 -24 -23 -58 -47 -30 -28 -24
-0 -25 -11 -17 -19 -22 -131 -41 -42 -52 -66 -65 -117 -186 -178 -0 -37 -58 -43 -43 -86 -0 -0 -0 -0 -0 -162 -59 -205 -191 -153 -68 -58 -24 -43 -47 -42 -57 -37 -27 -46 -19 -37 -27
-24 -71 -72 -46 -39 -106 -113 -13 -12 -0 -0 -0 -15 -0 -0 -0 -0 -0 -0 -0 -0 -35 -142 -0 -0 -183 -134 -141 -161 -194 -143 -199 -203 -113 -34 -44 -50 -31 -19 -24 -35 -54 -23 -32
-0 -0 -149 -122 -139 -12 -0 -0 -0 -0 -0 -0 -0 -0 -0 -0 -0 -0 -0 -1 -0 -43 -49 -15 -8 -33 -140 -127 -102 -120 -143 -136 -184 -172 -152 -52 -40 -59 -109 -241 -371 -380 -92 -5
-0 -0 -0 -0 -0 -0 -0 -0 -0 -0 -0 -0 -0 -0 -0 -0 -0 -11 -0 -0 -18 -20 -0 -0 -0 -106 -59 -95 -106 -95 -92 -66 -148 -190 -182 -181 -71 -48 -142 -0 -0 -0 -0 -197
-0 -0 -0 -0 -0 -0 -0 -0 -0 -0 -0 -45 -0 -0 -0 -0 -11 -37 -26 -44 -46 -35 -43 -39 -44 -48 -55 -65 -115 -24 -14 -89 -99 -115 -247 -262 -190 -83 -35 -0 -0 -0 -0 -0
Wind_Speed
9 4 9 15 13 15 6 4 8 9 6 4 9 6 6 5 4 2 10 6 15 17 19 11 15 19 17 17 14 10 12 10 8 4 5 3 4 3 2 3 6 7 7 6
6 11 15 15 13 4 6 7 9 10 4 5 7 3 8 4 4 6 7 15 15 17 22 7 10 19 18 19 15 13 11 11 9 7 6 3 3 2 2 2 1 6 6 7
9 13 12 8 7 3 5 8 10 5 2 2 7 7 9 6 4 5 8 2 18 24 17 18 12 18 18 19 17 16 16 15 13 9 4 3 3 2 1 2 2 3 5 6
9 10 7 4 6 7 6 9 6 8 6 5 4 4 7 9 14 12 12 14 19 15 14 5 9 5 13 7 14 16 15 14 10 9 9 7 5 4 4 4 3 4 5 5
13 7 8 8 5 8 10 8 5 6 8 4 1 6 5 4 13 15 20 18 9 14 15 24 32 12 1 13 8 7 9 10 11 11 10 6 5 3 3 3 5 5 4 5
10 8 5 5 6 9 8 7 9 6 2 3 8 6 6 3 6 8 19 20 12 25 18 8 13 11 14 12 5 4 2 7 9 10 9 10 8 7 5 4 4 3 3 4
10 10 10 5 4 9 6 4 5 6 4 12 5 7 8 7 5 5 14 22 15 15 16 13 17 13 10 8 8 9 6 8 11 12 10 9 9 8 8 6 5 3 2 2
2 9 8 7 8 8 7 6 5 4 3 4 3 7 6 8 13 16 20 22 13 14 20 17 17 9 6 10 6 4 7 9 17 7 9 7 8 6 5 6 4 4 4 6
2 6 7 8 7 9 11 4 6 4 6 4 5 7 7 10 14 4 9 19 18 18 18 20 15 11 16 16 13 13 14 18 22 13 10 8 7 7 6 6 5 5 4 5
2 4 7 5 4 6 3 6 7 5 4 5 3 6 6 2 10 14 17 19 28 10 20 17 12 16 13 7 15 16 8 16 11 8 9 7 8 7 6 6 7 6 5 6
2 4 11 7 3 4 9 6 7 2 3 4 4 6 5 11 6 18 23 29 17 9 8 22 17 16 12 7 10 13 19 14 10 8 10 8 8 8 7 6 6 6 5 6
4 2 5 7 10 7 2 7 6 4 9 3 1 2 12 15 16 19 22 19 5 9 8 7 14 19 12 10 13 11 9 14 11 9 9 10 9 7 7 7 7 6 7 7
6 4 5 12 6 7 5 7 5 5 2 5 2 5 10 6 3 10 15 7 10 7 7 7 8 8 18 13 8 9 7 9 9 9 10 11 9 9 8 7 7 7 7 7
3 2 2 6 9 5 8 14 14 5 2 4 2 10 8 11 10 8 7 5 10 8 8 6 7 8 8 6 7 6 7 7 7 7 8 9 9 9 7 7 7 8 8 7
4 1 5 8 8 9 11 11 13 9 8 4 7 8 15 14 12 8 4 7 8 10 9 8 7 6 6 5 3 4 6 7 5 4 3 5 8 8 8 8 8 8 7 7
4 4 6 7 10 12 13 14 16 14 8 7 13 7 5 5 7 2 6 4 11 10 10 9 8 7 6 6 9 7 6 6 5 5 4 4 6 7 7 7 8 7 7 9
3 1 3 5 7 10 8 8 9 5 8 8 9 5 6 5 15 18 9 11 9 9 8 8 8 7 6 5 7 2 7 7 5 6 7 6 5 7 7 7 7 7 7 7
4 2 3 4 6 5 10 8 9 10 13 11 14 8 9 9 11 4 7 8 8 8 8 8 7 5 5 6 5 4 7 5 7 6 6 6 7 7 6 7 7 7 6 9
7 3 1 2 2 8 10 7 6 6 11 12 10 9 9 10 13 7 9 10 8 8 6 6 6 7 7 7 7 7 7 6 2 6 7 7 7 7 8 8 9 7 6 6
5 5 5 1 1 3 5 6 8 7 4 9 10 9 10 6 4 1 5 5 6 7 3 5 7 5 8 8 8 8 7 7 7 6 6 7 7 8 9 9 7 7 8 9
2 1 5 4 5 3 6 10 7 2 1 7 10 8 9 5 5 5 5 6 6 1 4 4 6 5 5 7 7 7 7 6 4 6 7 7 6 7 7 7 6 8 9 9
3 0 2 2 2 1 4 3 6 2 5 5 7 6 5 6 5 2 5 6 6 7 6 3 2 3 3 4 5 6 6 7 7 6 6 7 7 5 5 8 8 8 8 10
4 1 4 5 5 2 7 8 6 4 4 7 6 2 1 3 4 7 6 7 6 6 4 4 5 5 5 3 1 2 4 5 7 8 7 5 7 7 7 6 8 6 5 8
3 8 4 6 6 6 9 10 9 7 6 6 7 6 6 5 6 6 5 5 5 5 5 4 5 5 4 4 3 3 4 3 5 7 8 7 6 7 3 4 4 4 3 7
2 4 1 3 7 7 8 7 7 8 6 3 5 6 5 6 7 3 3 4 5 5 4 4 4 4 6 5 5 5 5 3 4 5 6 7 6 7 1 4 3 4 6 14
3 3 2 1 1 5 3 6 6 5 5 6 5 4 5 4 5 5 6 6 5 7 7 6 6 5 6 6 6 6 6 5 6 6 4 5 5 5 1 4 2 6 5 7
Wind_Direction
232 188 228 241 242 255 10 342 303 281 262 110 78 38 325 249 69 191 165 47 92 40 323 281 168 167 151 161 161 162 176 170 161 146 152 161 187 193 219 226 187 179 192 181
273 224 236 250 266 51 3 297 272 292 121 102 98 5 300 280 71 327 276 104 127 147 223 293 289 162 156 162 167 171 181 165 172 171 169 152 161 203 183 239 204 194 198 158
221 251 239 235 295 271 249 241 264 269 347 315 109 343 321 315 355 285 268 56 160 174 181 222 239 169 167 162 161 164 173 180 177 176 133 103 102 66 60 301 275 212 198 169
242 265 269 232 246 282 269 263 313 354 14 263 70 271 303 342 319 318 303 161 197 206 139 338 317 321 145 132 166 163 170 173 175 155 157 157 167 163 182 188 207 237 224 193
261 269 231 276 233 260 243 289 329 298 291 324 249 89 299 31 324 314 314 291 206 197 160 160 207 84 63 82 18 49 349 184 170 169 153 156 162 169 184 194 190 224 227 207
270 282 292 249 247 244 261 291 287 269 226 6 229 132 293 162 199 314 354 306 258 195 188 156 89 84 43 26 107 233 298 249 186 169 158 164 171 181 193 192 187 183 191 180
274 261 252 198 303 315 293 300 308 318 82 244 206 43 232 285 359 23 355 322 324 149 137 144 128 122 93 253 216 212 165 294 206 174 168 169 176 188 198 180 215 140 199 157
209 332 265 176 178 224 275 211 173 298 70 207 177 185 268 289 24 47 327 296 321 79 151 144 147 184 143 198 197 170 17 310 278 161 179 171 165 192 199 167 195 197 199 190
127 290 315 167 190 171 270 317 255 342 295 111 100 357 302 334 348 40 259 282 324 111 143 158 156 162 190 179 189 177 183 239 232 181 170 181 169 181 184 189 188 204 199 170
296 343 290 299 144 273 269 269 357 0 4 1 156 158 213 290 30 17 348 306 304 103 147 161 173 186 196 128 190 203 191 244 199 171 161 175 184 182 184 186 205 201 222 204
329 33 292 328 60 358 332 16 333 136 149 236 153 272 255 100 107 46 4 287 266 122 116 162 183 196 206 154 176 199 209 207 185 185 170 172 176 189 189 186 201 210 213 156
8 252 316 291 240 230 156 145 246 130 287 288 154 20 150 168 159 151 207 245 287 109 134 120 150 193 199 203 197 168 167 177 183 185 173 182 184 182 183 188 198 191 199 167
335 347 4 341 16 354 326 298 275 244 353 302 38 195 201 221 220 181 209 297 306 110 110 97 83 117 173 193 177 160 172 171 186 189 182 177 182 180 187 195 202 196 188 188
76 0 186 221 252 304 342 330 325 330 7 280 198 131 185 205 208 208 247 303 308 82 75 61 96 88 146 174 177 172 165 171 207 194 181 173 184 186 183 201 189 194 182 191
111 271 297 301 326 322 299 285 286 299 288 303 251 167 165 195 208 200 245 339 46 33 47 42 67 122 144 168 189 164 174 175 166 156 161 189 178 182 188 191 195 189 191 193
4 311 14 334 328 326 324 316 307 289 291 16 84 50 224 84 44 57 333 70 67 48 29 16 22 67 52 178 184 190 192 192 170 180 198 222 195 188 191 182 191 194 184 193
312 326 53 283 304 330 319 287 280 51 49 81 66 135 106 62 38 320 56 50 50 55 39 16 5 16 27 43 36 10 219 188 192 191 197 204 189 199 189 185 186 198 194 185
254 215 155 252 343 324 247 15 19 61 54 44 111 140 144 144 172 178 65 79 62 58 35 7 360 334 356 4 23 10 351 192 177 194 205 205 202 212 202 189 201 194 177 191
215 128 30 110 247 280 308 25 35 69 40 35 57 71 122 131 87 40 32 27 55 63 50 8 357 353 24 31 21 31 6 13 212 212 211 222 212 212 205 198 195 196 174 184
103 95 116 285 247 271 6 42 20 360 53 16 47 61 52 69 71 303 14 6 3 11 37 6 353 14 24 5 14 23 9 46 36 16 331 261 223 221 228 213 206 188 185 198
140 167 194 248 233 230 340 352 332 353 177 47 60 40 42 66 163 186 189 240 216 133 336 7 7 11 5 10 23 19 11 16 351 346 335 317 311 244 232 236 211 201 196 184
117 43 259 330 2 310 13 43 73 283 30 65 80 57 35 13 17 152 222 225 201 207 219 219 255 281 316 6 35 2 358 338 336 331 331 326 314 309 287 239 243 219 199 198
32 294 172 131 182 68 85 122 137 115 63 25 33 343 321 17 10 339 324 329 311 300 273 251 225 239 249 250 104 335 292 340 330 326 306 306 304 295 283 281 276 243 253 238
73 25 55 40 14 29 55 55 50 57 66 35 353 345 14 3 336 307 294 321 1 352 338 329 334 309 287 271 254 235 283 298 313 311 310 296 297 306 336 19 25 6 21 276
227 41 12 290 39 18 59 47 29 7 1 1 342 323 341 316 305 353 333 312 292 280 278 285 284 280 276 272 272 265 256 270 292 285 292 303 290 282 163 71 24 95 127 130
41 3 64 157 78 141 16 25 12 347 343 332 300 348 345 335 309 298 296 275 264 268 264 268 273 286 282 278 263 255 250 245 256 267 269 273 294 290 222 140 135 61 37 309